TimeCST,TemperatureF,Dew PointF,Humidity,Sea Level PressureIn,VisibilityMPH,Wind Direction,Wind SpeedMPH,Gust SpeedMPH,PrecipitationIn,Events,Conditions,WindDirDegrees,DateUTC
12:16 AM,-4.4,-8.5,82,30.24,10.0,Calm,Calm,-,N/A,,Scattered Clouds,0,2013-01-01 06:16:00
12:36 AM,-1.7,-5.6,83,30.24,10.0,Calm,Calm,-,N/A,,Mostly Cloudy,0,2013-01-01 06:36:00
12:55 AM,-2.0,-6.5,81,30.24,10.0,Calm,Calm,-,N/A,,Mostly Cloudy,0,2013-01-01 06:55:00
1:16 AM,-2.4,-6.5,82,30.23,10.0,Calm,Calm,-,N/A,,Overcast,0,2013-01-01 07:16:00
1:36 AM,0.9,-3.5,82,30.23,10.0,Calm,Calm,-,N/A,,Overcast,0,2013-01-01 07:36:00
1:56 AM,1.8,-3.1,80,30.23,10.0,Calm,Calm,-,N/A,,Overcast,0,2013-01-01 07:56:00
2:16 AM,2.1,-2.9,79,30.23,10.0,Calm,Calm,-,N/A,,Overcast,0,2013-01-01 08:16:00
2:36 AM,2.7,-3.3,76,30.23,10.0,Calm,Calm,-,N/A,Snow,Light Snow,0,2013-01-01 08:36:00
2:56 AM,3.0,-2.4,78,30.23,10.0,Calm,Calm,-,N/A,Snow,Light Snow,0,2013-01-01 08:56:00
3:16 AM,3.9,-1.5,78,30.23,10.0,Calm,Calm,-,N/A,,Overcast,0,2013-01-01 09:16:00
3:36 AM,4.1,-1.1,79,30.23,10.0,Calm,Calm,-,N/A,,Overcast,0,2013-01-01 09:36:00
3:56 AM,5.0,-0.8,77,30.22,10.0,Calm,Calm,-,N/A,,Overcast,0,2013-01-01 09:56:00
4:16 AM,5.9,-0.0,77,30.22,10.0,Calm,Calm,-,N/A,,Overcast,0,2013-01-01 10:16:00
4:36 AM,6.8,0.5,75,30.22,10.0,Calm,Calm,-,N/A,,Overcast,0,2013-01-01 10:36:00
4:56 AM,7.3,1.6,77,30.21,10.0,Calm,Calm,-,N/A,,Overcast,0,2013-01-01 10:56:00
5:16 AM,7.7,1.8,77,30.21,10.0,Calm,Calm,-,N/A,,Overcast,0,2013-01-01 11:16:00
5:36 AM,9.0,3.2,77,30.20,10.0,SSW,9.2,-,N/A,,Overcast,200,2013-01-01 11:36:00
5:56 AM,9.5,3.6,77,30.20,10.0,SSW,10.4,-,N/A,,Overcast,210,2013-01-01 11:56:00
6:16 AM,9.7,3.0,74,30.20,10.0,SSW,9.2,-,N/A,,Overcast,210,2013-01-01 12:16:00
6:36 AM,9.9,3.0,74,30.19,10.0,SSW,9.2,-,N/A,,Overcast,210,2013-01-01 12:36:00
6:56 AM,10.2,3.7,75,30.19,10.0,SSW,9.2,-,N/A,,Overcast,210,2013-01-01 12:56:00
7:16 AM,10.4,3.9,75,30.18,10.0,SSW,8.1,-,N/A,,Overcast,210,2013-01-01 13:16:00
7:36 AM,10.8,4.5,76,30.18,10.0,SW,10.4,-,N/A,,Overcast,230,2013-01-01 13:36:00
7:56 AM,11.3,5.7,78,30.18,10.0,SW,8.1,-,N/A,,Overcast,230,2013-01-01 13:56:00
8:16 AM,12.4,7.3,80,30.18,10.0,NW,4.6,-,N/A,,Overcast,320,2013-01-01 14:16:00
8:36 AM,14.0,9.5,82,30.18,10.0,West,3.5,-,N/A,,Overcast,260,2013-01-01 14:36:00
8:56 AM,14.9,10.8,84,30.18,10.0,West,5.8,-,N/A,,Overcast,260,2013-01-01 14:56:00
9:16 AM,15.8,12.0,85,30.17,10.0,West,9.2,-,N/A,,Overcast,260,2013-01-01 15:16:00
9:36 AM,16.5,12.7,85,30.17,10.0,WSW,15.0,-,N/A,,Overcast,250,2013-01-01 15:36:00
9:56 AM,17.2,13.1,84,30.17,10.0,WSW,15.0,21.9,N/A,,Overcast,240,2013-01-01 15:56:00
10:16 AM,18.1,14.0,84,30.17,10.0,WSW,15.0,21.9,N/A,,Overcast,240,2013-01-01 16:16:00
10:35 AM,18.5,14.7,85,30.16,10.0,WSW,13.8,23.0,N/A,,Overcast,240,2013-01-01 16:35:00
10:56 AM,19.0,14.9,84,30.15,10.0,WSW,15.0,21.9,N/A,,Overcast,240,2013-01-01 16:56:00
11:16 AM,19.0,14.9,84,30.15,10.0,WSW,16.1,24.2,N/A,,Overcast,240,2013-01-01 17:16:00
11:36 AM,19.4,14.9,83,30.15,10.0,WSW,15.0,23.0,N/A,,Overcast,240,2013-01-01 17:36:00
11:56 AM,19.8,15.3,83,30.14,10.0,WSW,17.3,21.9,N/A,,Overcast,240,2013-01-01 17:56:00
12:16 PM,19.9,15.4,83,30.14,10.0,WSW,17.3,24.2,N/A,,Overcast,240,2013-01-01 18:16:00
12:36 PM,19.9,15.3,82,30.13,10.0,SW,16.1,-,N/A,,Overcast,230,2013-01-01 18:36:00
12:56 PM,20.1,14.9,80,30.12,10.0,SW,17.3,23.0,N/A,,Overcast,230,2013-01-01 18:56:00
1:16 PM,19.8,14.9,81,30.12,10.0,SW,19.6,-,N/A,,Overcast,230,2013-01-01 19:16:00
1:36 PM,19.6,15.3,83,30.12,10.0,SW,15.0,19.6,N/A,,Overcast,230,2013-01-01 19:36:00
1:56 PM,19.4,14.9,83,30.11,10.0,SW,13.8,-,N/A,,Overcast,230,2013-01-01 19:56:00
2:16 PM,18.9,14.5,83,30.11,10.0,SSW,13.8,-,N/A,,Overcast,210,2013-01-01 20:16:00
2:36 PM,18.1,14.0,84,30.11,10.0,SW,13.8,-,N/A,,Overcast,220,2013-01-01 20:36:00
2:55 PM,17.6,13.8,85,30.10,10.0,SSW,12.7,-,N/A,,Overcast,210,2013-01-01 20:55:00
3:16 PM,17.6,14.0,86,30.10,7.0,SSW,11.5,-,N/A,,Overcast,210,2013-01-01 21:16:00
3:36 PM,18.0,14.5,86,30.10,7.0,SSW,12.7,-,N/A,,Overcast,210,2013-01-01 21:36:00
3:56 PM,18.3,14.9,86,30.09,7.0,SSW,9.2,-,N/A,,Overcast,210,2013-01-01 21:56:00
4:16 PM,18.5,15.3,87,30.09,7.0,SW,11.5,-,N/A,,Overcast,220,2013-01-01 22:16:00
4:36 PM,18.5,15.6,89,30.08,7.0,SW,10.4,-,N/A,,Overcast,230,2013-01-01 22:36:00
4:56 PM,19.2,16.5,89,30.07,7.0,SW,11.5,16.1,N/A,,Overcast,230,2013-01-01 22:56:00
5:16 PM,19.4,16.5,89,30.07,5.0,SW,13.8,19.6,N/A,,Overcast,230,2013-01-01 23:16:00
5:36 PM,19.4,16.5,89,30.05,7.0,SW,12.7,18.4,N/A,,Overcast,220,2013-01-01 23:36:00
5:56 PM,19.4,17.1,91,30.05,5.0,SW,12.7,-,N/A,,Overcast,220,2013-01-01 23:56:00
6:16 PM,19.8,17.2,90,30.05,7.0,SW,10.4,-,N/A,,Overcast,220,2013-01-02 00:16:00
6:36 PM,20.1,17.2,89,30.05,7.0,WSW,12.7,18.4,N/A,,Overcast,240,2013-01-02 00:36:00
6:55 PM,20.1,16.7,87,30.04,10.0,SW,10.4,17.3,N/A,,Overcast,230,2013-01-02 00:55:00
7:16 PM,19.4,16.3,88,30.03,10.0,SW,13.8,17.3,N/A,,Mostly Cloudy,230,2013-01-02 01:16:00
7:36 PM,19.2,16.2,88,30.02,10.0,SW,17.3,21.9,N/A,,Mostly Cloudy,230,2013-01-02 01:36:00
7:56 PM,19.4,16.5,89,30.01,7.0,SW,17.3,-,N/A,,Overcast,230,2013-01-02 01:56:00
8:16 PM,19.2,16.5,89,30.01,7.0,SW,15.0,-,N/A,,Overcast,230,2013-01-02 02:16:00
8:36 PM,19.0,16.2,89,30.00,7.0,SW,17.3,-,N/A,,Mostly Cloudy,230,2013-01-02 02:36:00
8:55 PM,18.5,15.8,89,30.00,5.0,SW,15.0,-,N/A,,Scattered Clouds,220,2013-01-02 02:55:00
9:16 PM,18.3,15.4,89,30.00,7.0,SW,13.8,-,N/A,,Clear,220,2013-01-02 03:16:00
9:36 PM,18.1,15.6,90,29.99,5.0,SW,4.6,-,N/A,,Mostly Cloudy,220,2013-01-02 03:36:00
9:56 PM,17.6,14.9,89,29.99,7.0,SW,6.9,-,N/A,,Scattered Clouds,230,2013-01-02 03:56:00
10:15 PM,18.0,15.1,88,29.98,7.0,SW,6.9,-,N/A,,Clear,220,2013-01-02 04:15:00
10:36 PM,18.0,15.3,89,29.98,7.0,Calm,Calm,-,N/A,,Scattered Clouds,0,2013-01-02 04:36:00
10:56 PM,17.6,14.9,89,29.97,7.0,SW,10.4,-,N/A,,Scattered Clouds,230,2013-01-02 04:56:00
11:16 PM,18.0,14.9,88,29.97,7.0,SW,17.3,-,N/A,,Clear,230,2013-01-02 05:16:00
11:35 PM,17.6,14.9,89,29.96,5.0,SW,18.4,-,N/A,,Clear,230,2013-01-02 05:35:00
11:56 PM,18.1,15.6,90,29.95,7.0,SW,19.6,25.3,N/A,,Scattered Clouds,230,2013-01-02 05:56:00